Location: Gleizolles
(44.4833°N, 6.7667°E)
Time: 00:45:30
(UTC+00:00)

Vanguard 2 Rocket - Pass Details

Date: 22 June 2024
Orbit: 555 x 3302 km, 32.9° (Epoch: 24 July)

Event Time Altitude Azimuth Distance (km) Brightness Sun altitude
Rises 02:34:09 0° 239° (WSW) 6,979 - -10.7°
Exits shadow 02:38:35 10° 235° (SW) 6,161 10.5 -10.2°
Reaches altitude 10° 02:38:47 10° 235° (SW) 6,126 10.5 -10.2°
Maximum altitude 02:57:45 52° 167° (SSE) 3,677 9.8 -7.8°
Drops below altitude 10° 03:13:25 10° 98° (E) 5,165 11.4 -5.8°
Sets 03:16:55 0° 93° (E) 5,867 11.8 -5.3°
